| time (UTC) | temp F | wind direction | speed MPH | gust MPH | rain 1hr in | rain 24hr in | rain mn in | humidity % | barometer mb |
| 20260905103853 | 51 | 151 | 0.0 | 0.0 | 0.00 | 0.00 | 0.00 | 95 | 1019.7 |
| 20260905103349 | 51 | 141 | 0.0 | 0.0 | 0.00 | 0.00 | 0.00 | 95 | 1019.6 |
| 20260905102844 | 51 | 142 | 0.0 | 0.0 | 0.00 | 0.00 | 0.00 | 95 | 1019.6 |
| 20260905102341 | 51 | 156 | 0.0 | 0.0 | 0.00 | 0.00 | 0.00 | 95 | 1019.6 |
| 20260905101840 | 51 | 149 | 0.0 | 0.0 | 0.00 | 0.00 | 0.00 | 95 | 1019.5 |
| 20260905101338 | 51 | 137 | 0.0 | 0.0 | 0.00 | 0.00 | 0.00 | 95 | 1019.7 |
| 20260905100833 | 51 | 141 | 0.0 | 3.0 | 0.00 | 0.00 | 0.00 | 95 | 1019.6 |
| 20260905100329 | 52 | 136 | 1.0 | 2.0 | 0.00 | 0.00 | 0.00 | 95 | 1019.7 |
| 20260905095823 | 52 | 138 | 0.0 | 0.0 | 0.00 | 0.00 | 0.00 | 95 | 1019.5 |
| 20260905095322 | 51 | 138 | 1.0 | 2.0 | 0.00 | 0.00 | 0.00 | 95 | 1019.5 |
| 20260905094817 | 51 | 127 | 0.0 | 0.0 | 0.00 | 0.00 | 0.00 | 95 | 1019.4 |
| 20260905094313 | 51 | 152 | 0.0 | 0.0 | 0.00 | 0.00 | 0.00 | 95 | 1019.4 |
| 20260905093812 | 51 | 152 | 0.0 | 0.0 | 0.00 | 0.00 | 0.00 | 94 | 1019.7 |
| 20260905093308 | 51 | 151 | 0.0 | 0.0 | 0.00 | 0.00 | 0.00 | 94 | 1019.5 |
| 20260905092758 | 52 | 151 | 0.0 | 0.0 | 0.00 | 0.00 | 0.00 | 94 | 1019.4 |
| 20260905092253 | 52 | 150 | 0.0 | 0.0 | 0.00 | 0.00 | 0.00 | 94 | 1019.3 |
| 20260905091752 | 52 | 147 | 0.0 | 0.0 | 0.00 | 0.00 | 0.00 | 94 | 1019.5 |
| 20260905091247 | 52 | 137 | 0.0 | 0.0 | 0.00 | 0.00 | 0.00 | 94 | 1019.4 |
| 20260905090741 | 52 | 149 | 0.0 | 0.0 | 0.00 | 0.00 | 0.00 | 94 | 1019.5 |
| 20260905090236 | 52 | 149 | 0.0 | 0.0 | 0.00 | 0.00 | 0.00 | 94 | 1019.3 |
| 20260905085735 | 52 | 138 | 0.0 | 0.0 | 0.00 | 0.00 | 0.00 | 94 | 1019.5 |
| 20260905085230 | 52 | 146 | 0.0 | 0.0 | 0.00 | 0.00 | 0.00 | 94 | 1019.2 |
| 20260905084730 | 52 | 145 | 0.0 | 0.0 | 0.00 | 0.00 | 0.00 | 94 | 1019.3 |
| 20260905084230 | 52 | 146 | 0.0 | 0.0 | 0.00 | 0.00 | 0.00 | 94 | 1019.1 |
| 20260905083725 | 52 | 146 | 0.0 | 0.0 | 0.00 | 0.00 | 0.00 | 94 | 1019.2 |
| 20260905083221 | 52 | 152 | 0.0 | 0.0 | 0.00 | 0.00 | 0.00 | 94 | 1019.3 |
| 20260905082717 | 52 | 148 | 0.0 | 0.0 | 0.00 | 0.00 | 0.00 | 93 | 1019.4 |
| 20260905082212 | 52 | 141 | 0.0 | 0.0 | 0.00 | 0.00 | 0.00 | 93 | 1019.1 |
| 20260905081712 | 52 | 147 | 0.0 | 0.0 | 0.00 | 0.00 | 0.00 | 93 | 1019.2 |
| 20260905081207 | 52 | 146 | 0.0 | 0.0 | 0.00 | 0.00 | 0.00 | 93 | 1019.0 |
| 20260905080707 | 53 | 146 | 0.0 | 0.0 | 0.00 | 0.00 | 0.00 | 93 | 1019.2 |
| 20260905080201 | 53 | 146 | 0.0 | 0.0 | 0.00 | 0.00 | 0.00 | 93 | 1019.3 |
| 20260905075701 | 53 | 145 | 0.0 | 0.0 | 0.00 | 0.00 | 0.00 | 93 | 1019.3 |
| 20260905075200 | 53 | 147 | 0.0 | 0.0 | 0.00 | 0.00 | 0.00 | 92 | 1019.2 |
| 20260905074659 | 53 | 146 | 0.0 | 0.0 | 0.00 | 0.00 | 0.00 | 92 | 1019.2 |
| 20260905074154 | 53 | 151 | 0.0 | 0.0 | 0.00 | 0.00 | 0.00 | 92 | 1019.4 |
| 20260905073650 | 53 | 147 | 0.0 | 0.0 | 0.00 | 0.00 | 0.00 | 92 | 1019.4 |
| 20260905073146 | 53 | 140 | 0.0 | 0.0 | 0.00 | 0.00 | 0.00 | 92 | 1019.2 |
| 20260905072644 | 53 | 147 | 0.0 | 0.0 | 0.00 | 0.00 | 0.00 | 91 | 1019.1 |
| 20260905072140 | 53 | 151 | 0.0 | 0.0 | 0.00 | 0.00 | 0.00 | 91 | 1019.3 |
| 20260905071637 | 53 | 150 | 0.0 | 0.0 | 0.00 | 0.00 | 0.00 | 91 | 1019.3 |
| 20260905071132 | 54 | 149 | 0.0 | 0.0 | 0.00 | 0.00 | 0.00 | 91 | 1019.0 |
| 20260905070627 | 54 | 145 | 0.0 | 0.0 | 0.00 | 0.00 | 0.00 | 90 | 1018.8 |
| 20260905070123 | 54 | 152 | 0.0 | 0.0 | 0.00 | 0.00 | 0.00 | 90 | 1019.2 |
| 20260905065621 | 54 | 150 | 0.0 | 0.0 | 0.00 | 0.01 | 0.01 | 90 | 1019.0 |
| 20260905065116 | 54 | 147 | 0.0 | 0.0 | 0.00 | 0.01 | 0.01 | 90 | 1018.9 |
| 20260905064611 | 54 | 147 | 0.0 | 0.0 | 0.00 | 0.01 | 0.01 | 90 | 1019.0 |
| 20260905064106 | 54 | 147 | 0.0 | 0.0 | 0.00 | 0.01 | 0.01 | 90 | 1019.0 |
| 20260905063605 | 55 | 151 | 0.0 | 0.0 | 0.00 | 0.01 | 0.01 | 89 | 1018.9 |
| 20260905063101 | 55 | 149 | 0.0 | 0.0 | 0.00 | 0.01 | 0.01 | 89 | 1018.9 |
| 20260905062557 | 55 | 149 | 0.0 | 0.0 | 0.00 | 0.01 | 0.01 | 88 | 1018.7 |
| 20260905062050 | 55 | 160 | 0.0 | 0.0 | 0.00 | 0.01 | 0.01 | 88 | 1018.8 |
| 20260905061545 | 55 | 146 | 0.0 | 0.0 | 0.00 | 0.01 | 0.01 | 87 | 1018.5 |
| 20260905061044 | 55 | 146 | 0.0 | 0.0 | 0.00 | 0.01 | 0.01 | 87 | 1018.7 |
| 20260905060541 | 56 | 142 | 0.0 | 0.0 | 0.00 | 0.01 | 0.01 | 87 | 1018.4 |
| 20260905060036 | 56 | 145 | 0.0 | 0.0 | 0.00 | 0.01 | 0.01 | 86 | 1018.6 |
| 20260905055535 | 56 | 142 | 0.0 | 0.0 | 0.00 | 0.01 | 0.01 | 85 | 1018.3 |
| 20260905055030 | 57 | 139 | 0.0 | 0.0 | 0.00 | 0.01 | 0.01 | 85 | 1018.4 |
| 20260905054526 | 57 | 142 | 0.0 | 0.0 | 0.00 | 0.01 | 0.01 | 84 | 1018.4 |
| 20260905054021 | 57 | 139 | 0.0 | 0.0 | 0.00 | 0.01 | 0.01 | 84 | 1018.4 |
| 20260905053515 | 57 | 131 | 0.0 | 0.0 | 0.00 | 0.01 | 0.01 | 84 | 1018.4 |
| 20260905053011 | 57 | 124 | 0.0 | 0.0 | 0.00 | 0.01 | 0.01 | 84 | 1018.4 |
| 20260905052510 | 57 | 132 | 0.0 | 0.0 | 0.00 | 0.01 | 0.01 | 84 | 1018.4 |
| 20260905052004 | 57 | 120 | 0.0 | 0.0 | 0.00 | 0.01 | 0.01 | 85 | 1018.6 |
| 20260905051459 | 57 | 150 | 0.0 | 0.0 | 0.00 | 0.01 | 0.01 | 85 | 1018.5 |
| 20260905050957 | 57 | 147 | 0.0 | 0.0 | 0.00 | 0.01 | 0.01 | 84 | 1018.5 |
| 20260905050452 | 57 | 158 | 0.0 | 0.0 | 0.00 | 0.01 | 0.01 | 84 | 1018.5 |
| 20260905045948 | 57 | 153 | 0.0 | 0.0 | 0.00 | 0.01 | 0.01 | 83 | 1018.5 |
| 20260905045443 | 58 | 143 | 0.0 | 0.0 | 0.00 | 0.01 | 0.01 | 83 | 1018.6 |
| 20260905044938 | 58 | 133 | 0.0 | 0.0 | 0.00 | 0.01 | 0.01 | 83 | 1018.3 |
| 20260905044433 | 57 | 134 | 0.0 | 0.0 | 0.00 | 0.01 | 0.01 | 83 | 1018.5 |
| 20260905043932 | 57 | 136 | 0.0 | 0.0 | 0.00 | 0.01 | 0.01 | 82 | 1018.6 |
| 20260905043431 | 58 | 151 | 0.0 | 0.0 | 0.00 | 0.01 | 0.01 | 82 | 1018.7 |
| 20260905042926 | 58 | 151 | 0.0 | 0.0 | 0.00 | 0.01 | 0.01 | 82 | 1018.7 |
| 20260905042421 | 58 | 151 | 0.0 | 0.0 | 0.00 | 0.01 | 0.01 | 82 | 1018.7 |
| 20260905041916 | 58 | 152 | 0.0 | 0.0 | 0.00 | 0.01 | 0.01 | 81 | 1018.6 |
| 20260905041412 | 58 | 150 | 0.0 | 0.0 | 0.00 | 0.01 | 0.01 | 81 | 1018.4 |
| 20260905040907 | 58 | 149 | 0.0 | 0.0 | 0.00 | 0.01 | 0.01 | 81 | 1018.4 |
| 20260905040406 | 58 | 134 | 0.0 | 0.0 | 0.00 | 0.01 | 0.01 | 80 | 1018.4 |
| 20260905035906 | 58 | 137 | 0.0 | 0.0 | 0.00 | 0.01 | 0.01 | 80 | 1018.5 |
| 20260905035401 | 58 | 145 | 0.0 | 0.0 | 0.00 | 0.01 | 0.01 | 80 | 1018.5 |
| 20260905034858 | 59 | 143 | 0.0 | 0.0 | 0.00 | 0.01 | 0.01 | 79 | 1018.5 |
| 20260905034353 | 59 | 146 | 0.0 | 0.0 | 0.00 | 0.01 | 0.01 | 78 | 1018.3 |
| 20260905033851 | 59 | 120 | 0.0 | 0.0 | 0.00 | 0.01 | 0.01 | 77 | 1018.2 |
| 20260905033347 | 59 | 130 | 0.0 | 0.0 | 0.00 | 0.01 | 0.01 | 77 | 1018.5 |
| 20260905032846 | 59 | 125 | 0.0 | 0.0 | 0.00 | 0.01 | 0.01 | 78 | 1018.2 |
| 20260905032342 | 59 | 132 | 0.0 | 0.0 | 0.00 | 0.01 | 0.01 | 77 | 1018.2 |
| 20260905031837 | 59 | 123 | 0.0 | 0.0 | 0.00 | 0.01 | 0.01 | 76 | 1017.8 |
| 20260905031333 | 59 | 138 | 0.0 | 0.0 | 0.00 | 0.01 | 0.01 | 75 | 1018.1 |
| 20260905030828 | 60 | 143 | 0.0 | 0.0 | 0.00 | 0.01 | 0.01 | 75 | 1018.1 |
| 20260905030324 | 60 | 149 | 0.0 | 0.0 | 0.00 | 0.01 | 0.01 | 75 | 1018.1 |
| 20260905025823 | 60 | 146 | 0.0 | 0.0 | 0.00 | 0.01 | 0.01 | 74 | 1017.9 |
| 20260905025318 | 60 | 140 | 0.0 | 0.0 | 0.00 | 0.01 | 0.01 | 74 | 1017.9 |
| 20260905024814 | 60 | 149 | 0.0 | 0.0 | 0.00 | 0.01 | 0.01 | 74 | 1018.1 |
| 20260905024309 | 61 | 143 | 0.0 | 0.0 | 0.00 | 0.01 | 0.01 | 72 | 1017.9 |
| 20260905023805 | 61 | 145 | 0.0 | 0.0 | 0.00 | 0.01 | 0.01 | 73 | 1017.7 |
| 20260905023300 | 62 | 149 | 0.0 | 0.0 | 0.00 | 0.01 | 0.01 | 69 | 1017.8 |
| 20260905022759 | 62 | 136 | 0.0 | 0.0 | 0.00 | 0.01 | 0.01 | 69 | 1017.8 |
| 20260905022254 | 62 | 126 | 0.0 | 0.0 | 0.00 | 0.01 | 0.01 | 67 | 1017.8 |
| 20260905021754 | 63 | 140 | 0.0 | 0.0 | 0.00 | 0.01 | 0.01 | 66 | 1017.8 |
| 20260905021250 | 63 | 132 | 0.0 | 0.0 | 0.00 | 0.01 | 0.01 | 65 | 1017.9 |
| 20260905020749 | 64 | 133 | 0.0 | 0.0 | 0.00 | 0.01 | 0.01 | 65 | 1018.0 |
| 20260905020245 | 64 | 142 | 2.0 | 3.0 | 0.00 | 0.01 | 0.01 | 65 | 1017.8 |
| 20260905015743 | 65 | 128 | 2.0 | 5.0 | 0.00 | 0.01 | 0.01 | 61 | 1018.0 |
| 20260905015238 | 65 | 161 | 0.0 | 0.0 | 0.00 | 0.01 | 0.01 | 62 | 1017.9 |
| 20260905014737 | 65 | 164 | 0.0 | 1.0 | 0.00 | 0.01 | 0.01 | 60 | 1017.9 |
| 20260905014233 | 66 | 150 | 1.0 | 3.0 | 0.00 | 0.01 | 0.01 | 60 | 1017.9 |
| 20260905013728 | 66 | 119 | 1.0 | 2.0 | 0.00 | 0.01 | 0.01 | 61 | 1017.7 |
| 20260905013224 | 66 | 147 | 0.0 | 0.0 | 0.00 | 0.01 | 0.01 | 58 | 1017.7 |
| 20260905012719 | 67 | 135 | 0.0 | 1.0 | 0.00 | 0.01 | 0.01 | 56 | 1017.5 |
| 20260905012215 | 67 | 153 | 0.0 | 2.0 | 0.00 | 0.01 | 0.01 | 55 | 1017.4 |
| 20260905011712 | 68 | 149 | 0.0 | 0.0 | 0.00 | 0.01 | 0.01 | 57 | 1017.3 |
| 20260905011208 | 68 | 147 | 0.0 | 1.0 | 0.00 | 0.01 | 0.01 | 57 | 1017.3 |
| 20260905010707 | 69 | 158 | 1.0 | 3.0 | 0.00 | 0.01 | 0.01 | 52 | 1017.3 |
| 20260905010203 | 69 | 160 | 1.0 | 3.0 | 0.00 | 0.01 | 0.01 | 53 | 1017.0 |
| 20260905005659 | 70 | 156 | 3.0 | 6.0 | 0.00 | 0.01 | 0.01 | 52 | 1017.1 |
| 20260905005155 | 70 | 173 | 1.0 | 2.0 | 0.00 | 0.01 | 0.01 | 52 | 1016.9 |
| 20260905004649 | 71 | 97 | 3.0 | 5.0 | 0.00 | 0.01 | 0.01 | 52 | 1017.0 |
| 20260905004144 | 70 | 155 | 0.0 | 0.0 | 0.00 | 0.01 | 0.01 | 52 | 1016.9 |
| 20260905003639 | 70 | 96 | 2.0 | 7.0 | 0.00 | 0.01 | 0.01 | 52 | 1017.1 |
| 20260905003135 | 70 | 120 | 0.0 | 3.0 | 0.00 | 0.01 | 0.01 | 52 | 1017.0 |
| 20260905002631 | 70 | 198 | 3.0 | 6.0 | 0.00 | 0.01 | 0.01 | 52 | 1017.1 |
| 20260905002125 | 70 | 105 | 1.0 | 1.0 | 0.00 | 0.01 | 0.01 | 56 | 1016.8 |
| 20260905001621 | 70 | 138 | 3.0 | 6.0 | 0.00 | 0.01 | 0.01 | 55 | 1016.9 |
| 20260905001120 | 70 | 163 | 1.0 | 7.0 | 0.00 | 0.01 | 0.01 | 52 | 1016.7 |
| 20260905000616 | 71 | 149 | 3.0 | 3.0 | 0.00 | 0.01 | 0.01 | 48 | 1016.9 |
| 20260905000112 | 71 | 173 | 0.0 | 2.0 | 0.00 | 0.01 | 0.01 | 46 | 1016.7 |
| 20260904235611 | 71 | 190 | 2.0 | 2.0 | 0.00 | 0.01 | 0.01 | 47 | 1016.5 |
| 20260904235111 | 71 | 174 | 1.0 | 2.0 | 0.00 | 0.01 | 0.01 | 44 | 1016.7 |
| 20260904234606 | 70 | 174 | 2.0 | 3.0 | 0.00 | 0.01 | 0.01 | 47 | 1016.7 |
| 20260904234102 | 71 | 182 | 2.0 | 5.0 | 0.00 | 0.01 | 0.01 | 46 | 1016.7 |
| 20260904233602 | 73 | 195 | 2.0 | 6.0 | 0.00 | 0.01 | 0.01 | 45 | 1016.8 |
| 20260904233058 | 73 | 199 | 2.0 | 2.0 | 0.00 | 0.01 | 0.01 | 43 | 1016.8 |
| 20260904232554 | 73 | 113 | 0.0 | 3.0 | 0.00 | 0.01 | 0.01 | 44 | 1016.8 |
| 20260904232051 | 72 | 163 | 0.0 | 5.0 | 0.00 | 0.01 | 0.01 | 45 | 1016.7 |
| 20260904231546 | 72 | 116 | 3.0 | 3.0 | 0.00 | 0.01 | 0.01 | 46 | 1016.6 |
| 20260904231041 | 72 | 226 | 3.0 | 3.0 | 0.00 | 0.01 | 0.01 | 49 | 1016.5 |
| 20260904230540 | 70 | 223 | 1.0 | 3.0 | 0.00 | 0.01 | 0.01 | 51 | 1016.6 |
| 20260904230036 | 71 | 187 | 1.0 | 5.0 | 0.00 | 0.01 | 0.01 | 50 | 1016.6 |
| 20260904225533 | 71 | 201 | 1.0 | 2.0 | 0.00 | 0.01 | 0.01 | 51 | 1016.6 |
| 20260904225033 | 71 | 241 | 5.0 | 7.0 | 0.00 | 0.01 | 0.01 | 52 | 1016.5 |
| 20260904224529 | 71 | 207 | 2.0 | 7.0 | 0.00 | 0.01 | 0.01 | 51 | 1016.4 |
| 20260904224028 | 71 | 208 | 3.0 | 7.0 | 0.00 | 0.01 | 0.01 | 49 | 1016.5 |
| 20260904223527 | 72 | 104 | 3.0 | 3.0 | 0.00 | 0.01 | 0.01 | 51 | 1016.5 |
| 20260904223023 | 71 | 188 | 3.0 | 5.0 | 0.00 | 0.01 | 0.01 | 51 | 1016.3 |
| 20260904222518 | 71 | 209 | 2.0 | 5.0 | 0.00 | 0.01 | 0.01 | 52 | 1016.4 |
| 20260904222014 | 71 | 175 | 3.0 | 5.0 | 0.00 | 0.01 | 0.01 | 52 | 1016.3 |
| 20260904221509 | 72 | 289 | 3.0 | 5.0 | 0.00 | 0.01 | 0.01 | 53 | 1016.5 |
| 20260904221009 | 71 | 182 | 2.0 | 5.0 | 0.00 | 0.01 | 0.01 | 53 | 1016.3 |
| 20260904220508 | 71 | 158 | 2.0 | 3.0 | 0.00 | 0.01 | 0.01 | 53 | 1016.4 |
| 20260904220004 | 71 | 173 | 1.0 | 3.0 | 0.00 | 0.01 | 0.01 | 53 | 1016.3 |
| 20260904215459 | 71 | 266 | 4.0 | 5.0 | 0.00 | 0.01 | 0.01 | 54 | 1016.2 |
| 20260904214954 | 70 | 47 | 2.0 | 5.0 | 0.00 | 0.01 | 0.01 | 55 | 1016.3 |
| 20260904214450 | 70 | 55 | 2.0 | 6.0 | 0.00 | 0.01 | 0.01 | 56 | 1016.3 |
| 20260904213945 | 68 | 69 | 1.0 | 3.0 | 0.00 | 0.01 | 0.01 | 58 | 1016.2 |
| 20260904213438 | 69 | 198 | 3.0 | 7.0 | 0.00 | 0.01 | 0.01 | 58 | 1016.2 |
| 20260904212935 | 69 | 86 | 1.0 | 6.0 | 0.00 | 0.01 | 0.01 | 59 | 1016.1 |
| 20260904212434 | 68 | 168 | 3.0 | 6.0 | 0.00 | 0.01 | 0.01 | 59 | 1016.3 |
| 20260904211930 | 68 | 218 | 3.0 | 6.0 | 0.00 | 0.01 | 0.01 | 60 | 1016.1 |
| 20260904211429 | 68 | 249 | 3.0 | 5.0 | 0.00 | 0.01 | 0.01 | 61 | 1016.0 |
| 20260904210925 | 68 | 227 | 4.0 | 7.0 | 0.00 | 0.01 | 0.01 | 61 | 1016.1 |
| 20260904210424 | 68 | 135 | 2.0 | 8.0 | 0.00 | 0.01 | 0.01 | 61 | 1016.2 |
| 20260904205920 | 68 | 254 | 3.0 | 5.0 | 0.00 | 0.01 | 0.01 | 61 | 1016.2 |
| 20260904205415 | 68 | 227 | 4.0 | 8.0 | 0.00 | 0.01 | 0.01 | 61 | 1016.2 |
| 20260904204912 | 67 | 211 | 4.0 | 6.0 | 0.00 | 0.01 | 0.01 | 65 | 1016.3 |
| 20260904204408 | 67 | 223 | 4.0 | 6.0 | 0.00 | 0.01 | 0.01 | 64 | 1016.3 |
| 20260904203904 | 67 | 227 | 4.0 | 7.0 | 0.00 | 0.01 | 0.01 | 63 | 1016.1 |
| 20260904203400 | 67 | 188 | 3.0 | 5.0 | 0.00 | 0.01 | 0.01 | 65 | 1016.2 |
| 20260904202856 | 66 | 186 | 2.0 | 5.0 | 0.00 | 0.01 | 0.01 | 66 | 1016.2 |
| 20260904202352 | 67 | 195 | 5.0 | 8.0 | 0.00 | 0.01 | 0.01 | 63 | 1016.3 |
| 20260904201847 | 67 | 215 | 3.0 | 6.0 | 0.00 | 0.01 | 0.01 | 63 | 1016.2 |
| 20260904201342 | 66 | 160 | 0.0 | 6.0 | 0.00 | 0.01 | 0.01 | 66 | 1016.4 |
| 20260904200837 | 66 | 200 | 3.0 | 5.0 | 0.00 | 0.01 | 0.01 | 67 | 1016.3 |
| 20260904200335 | 65 | 213 | 3.0 | 5.0 | 0.00 | 0.01 | 0.01 | 68 | 1016.5 |
| 20260904195830 | 64 | 206 | 3.0 | 5.0 | 0.00 | 0.01 | 0.01 | 68 | 1016.5 |
| 20260904195329 | 65 | 215 | 3.0 | 3.0 | 0.00 | 0.01 | 0.01 | 69 | 1016.5 |
| 20260904194829 | 65 | 165 | 3.0 | 6.0 | 0.00 | 0.01 | 0.01 | 69 | 1016.4 |
| 20260904194328 | 65 | 210 | 3.0 | 7.0 | 0.00 | 0.01 | 0.01 | 68 | 1016.3 |
| 20260904193823 | 65 | 215 | 2.0 | 7.0 | 0.00 | 0.01 | 0.01 | 69 | 1016.4 |
| 20260904193319 | 64 | 224 | 3.0 | 6.0 | 0.00 | 0.01 | 0.01 | 71 | 1016.3 |
| 20260904192814 | 64 | 230 | 4.0 | 6.0 | 0.00 | 0.01 | 0.01 | 71 | 1016.3 |
| 20260904192309 | 64 | 169 | 6.0 | 8.0 | 0.00 | 0.01 | 0.01 | 72 | 1016.3 |
| 20260904191806 | 64 | 224 | 5.0 | 6.0 | 0.00 | 0.01 | 0.01 | 72 | 1016.5 |
| 20260904191302 | 63 | 178 | 4.0 | 6.0 | 0.00 | 0.01 | 0.01 | 74 | 1016.3 |
| 20260904190758 | 64 | 250 | 5.0 | 6.0 | 0.00 | 0.01 | 0.01 | 73 | 1016.3 |
| 20260904190254 | 64 | 225 | 5.0 | 10.0 | 0.00 | 0.01 | 0.01 | 73 | 1016.7 |
| 20260904185750 | 63 | 200 | 2.0 | 5.0 | 0.00 | 0.01 | 0.01 | 74 | 1016.6 |
| 20260904185245 | 64 | 180 | 4.0 | 7.0 | 0.00 | 0.01 | 0.01 | 73 | 1016.4 |
| 20260904184743 | 63 | 162 | 1.0 | 5.0 | 0.00 | 0.01 | 0.01 | 74 | 1016.6 |
| 20260904184240 | 63 | 178 | 4.0 | 7.0 | 0.00 | 0.01 | 0.01 | 74 | 1016.4 |
| 20260904183735 | 63 | 188 | 3.0 | 10.0 | 0.00 | 0.01 | 0.01 | 73 | 1016.5 |
| 20260904183230 | 62 | 136 | 4.0 | 7.0 | 0.00 | 0.01 | 0.01 | 75 | 1016.5 |
| 20260904182725 | 62 | 147 | 2.0 | 7.0 | 0.00 | 0.01 | 0.01 | 77 | 1016.5 |
| 20260904182220 | 62 | 196 | 3.0 | 7.0 | 0.00 | 0.01 | 0.01 | 77 | 1016.6 |
| 20260904181716 | 62 | 215 | 5.0 | 5.0 | 0.00 | 0.01 | 0.01 | 76 | 1016.6 |
| 20260904181216 | 62 | 199 | 7.0 | 10.0 | 0.00 | 0.01 | 0.01 | 77 | 1016.7 |
| 20260904180712 | 64 | 158 | 4.0 | 6.0 | 0.00 | 0.01 | 0.01 | 74 | 1016.6 |
| 20260904180207 | 63 | 186 | 3.0 | 8.0 | 0.00 | 0.01 | 0.01 | 77 | 1016.6 |
| 20260904175706 | 63 | 88 | 1.0 | 5.0 | 0.00 | 0.01 | 0.01 | 77 | 1016.7 |
| 20260904175205 | 63 | 160 | 3.0 | 5.0 | 0.00 | 0.01 | 0.01 | 78 | 1016.5 |
| 20260904174705 | 62 | 208 | 3.0 | 5.0 | 0.00 | 0.01 | 0.01 | 79 | 1016.5 |
| 20260904174201 | 62 | 269 | 5.0 | 7.0 | 0.00 | 0.01 | 0.01 | 80 | 1016.5 |
| 20260904173656 | 61 | 225 | 3.0 | 5.0 | 0.00 | 0.01 | 0.01 | 82 | 1016.6 |
| 20260904173151 | 61 | 169 | 2.0 | 3.0 | 0.00 | 0.01 | 0.01 | 82 | 1016.7 |
| 20260904172648 | 61 | 158 | 0.0 | 3.0 | 0.00 | 0.01 | 0.01 | 83 | 1016.4 |
| 20260904172147 | 60 | 158 | 0.0 | 2.0 | 0.00 | 0.01 | 0.01 | 86 | 1016.6 |
| 20260904171642 | 60 | 203 | 3.0 | 3.0 | 0.00 | 0.01 | 0.01 | 85 | 1016.6 |
| 20260904171137 | 60 | 195 | 4.0 | 5.0 | 0.00 | 0.01 | 0.01 | 85 | 1016.4 |
| 20260904170633 | 60 | 157 | 1.0 | 5.0 | 0.00 | 0.01 | 0.01 | 86 | 1016.6 |
| 20260904170129 | 59 | 158 | 1.0 | 3.0 | 0.00 | 0.01 | 0.01 | 88 | 1016.8 |
| 20260904165628 | 59 | 147 | 2.0 | 3.0 | 0.00 | 0.01 | 0.01 | 89 | 1016.5 |
| 20260904165127 | 59 | 208 | 2.0 | 2.0 | 0.00 | 0.01 | 0.01 | 88 | 1016.7 |
| 20260904164627 | 59 | 160 | 1.0 | 2.0 | 0.00 | 0.01 | 0.01 | 89 | 1016.5 |
| 20260904164123 | 59 | 188 | 1.0 | 3.0 | 0.00 | 0.01 | 0.01 | 89 | 1016.6 |
| 20260904163619 | 59 | 169 | 1.0 | 5.0 | 0.00 | 0.01 | 0.01 | 91 | 1016.4 |
| 20260904163114 | 59 | 176 | 2.0 | 2.0 | 0.00 | 0.01 | 0.01 | 91 | 1016.5 |
| 20260904162613 | 59 | 162 | 2.0 | 3.0 | 0.00 | 0.01 | 0.01 | 93 | 1016.4 |
| 20260904162109 | 59 | 168 | 1.0 | 2.0 | 0.00 | 0.01 | 0.01 | 94 | 1016.2 |
| 20260904161604 | 58 | 175 | 0.0 | 0.0 | 0.00 | 0.01 | 0.01 | 96 | 1016.4 |
| 20260904161059 | 57 | 159 | 0.0 | 0.0 | 0.00 | 0.01 | 0.01 | 97 | 1016.3 |
| 20260904160554 | 57 | 166 | 0.0 | 0.0 | 0.00 | 0.01 | 0.01 | 97 | 1016.2 |
| 20260904160050 | 56 | 153 | 0.0 | 0.0 | 0.00 | 0.01 | 0.01 | 97 | 1016.4 |
| 20260904155549 | 56 | 136 | 0.0 | 1.0 | 0.00 | 0.01 | 0.01 | 97 | 1016.3 |
| 20260904155044 | 57 | 113 | 0.0 | 0.0 | 0.00 | 0.01 | 0.01 | 97 | 1016.2 |
| 20260904154537 | 56 | 135 | 0.0 | 0.0 | 0.00 | 0.01 | 0.01 | 98 | 1016.1 |
| 20260904154032 | 56 | 133 | 0.0 | 0.0 | 0.00 | 0.01 | 0.01 | 97 | 1016.3 |
| 20260904153532 | 56 | 158 | 0.0 | 0.0 | 0.00 | 0.01 | 0.01 | 97 | 1016.3 |
| 20260904153029 | 56 | 156 | 0.0 | 0.0 | 0.00 | 0.01 | 0.01 | 98 | 1016.2 |
| 20260904152524 | 56 | 154 | 0.0 | 0.0 | 0.00 | 0.01 | 0.01 | 98 | 1016.0 |
| 20260904152019 | 56 | 153 | 0.0 | 0.0 | 0.00 | 0.01 | 0.01 | 98 | 1016.0 |
| 20260904151514 | 55 | 156 | 0.0 | 0.0 | 0.00 | 0.01 | 0.01 | 98 | 1016.0 |
| 20260904151008 | 55 | 154 | 0.0 | 0.0 | 0.00 | 0.01 | 0.01 | 98 | 1015.9 |
| 20260904150503 | 55 | 157 | 0.0 | 0.0 | 0.00 | 0.01 | 0.01 | 98 | 1015.7 |
| 20260904150002 | 54 | 154 | 0.0 | 0.0 | 0.00 | 0.01 | 0.01 | 98 | 1015.6 |
| 20260904145457 | 54 | 155 | 0.0 | 0.0 | 0.00 | 0.01 | 0.01 | 98 | 1015.9 |
| 20260904144953 | 54 | 154 | 0.0 | 0.0 | 0.00 | 0.01 | 0.01 | 98 | 1015.7 |
| 20260904144448 | 54 | 154 | 0.0 | 0.0 | 0.00 | 0.01 | 0.01 | 98 | 1015.7 |
| 20260904143944 | 54 | 154 | 0.0 | 0.0 | 0.00 | 0.01 | 0.01 | 98 | 1015.5 |
| 20260904143440 | 54 | 153 | 0.0 | 0.0 | 0.00 | 0.01 | 0.01 | 98 | 1015.6 |
| 20260904142937 | 54 | 152 | 0.0 | 0.0 | 0.00 | 0.01 | 0.01 | 98 | 1015.6 |
| 20260904142433 | 53 | 146 | 0.0 | 0.0 | 0.00 | 0.01 | 0.01 | 98 | 1015.7 |
| 20260904141927 | 53 | 148 | 0.0 | 0.0 | 0.00 | 0.01 | 0.01 | 98 | 1015.7 |
| 20260904141422 | 53 | 147 | 0.0 | 0.0 | 0.00 | 0.01 | 0.01 | 98 | 1015.6 |
| 20260904140919 | 53 | 148 | 0.0 | 0.0 | 0.00 | 0.01 | 0.01 | 98 | 1015.5 |
| 20260904140419 | 53 | 143 | 0.0 | 0.0 | 0.00 | 0.01 | 0.01 | 98 | 1015.5 |
| 20260904135918 | 53 | 151 | 0.0 | 0.0 | 0.00 | 0.01 | 0.01 | 98 | 1015.4 |
| 20260904135418 | 53 | 153 | 0.0 | 0.0 | 0.00 | 0.01 | 0.01 | 98 | 1015.2 |
| 20260904134914 | 53 | 151 | 0.0 | 0.0 | 0.07 | 0.01 | 0.01 | 98 | 1015.1 |
| 20260904134413 | 53 | 154 | 0.0 | 0.0 | 0.00 | 0.00 | 0.00 | 97 | 1015.1 |
| 20260904133909 | 53 | 151 | 0.0 | 0.0 | 0.00 | 0.00 | 0.00 | 97 | 1015.2 |
| 20260904133403 | 53 | 152 | 0.0 | 0.0 | 0.00 | 0.00 | 0.00 | 97 | 1014.9 |
| 20260904132858 | 53 | 152 | 0.0 | 0.0 | 0.00 | 0.00 | 0.00 | 97 | 1014.9 |
| 20260904132359 | 53 | 152 | 0.0 | 0.0 | 0.00 | 0.00 | 0.00 | 97 | 1015.0 |
| 20260904131858 | 53 | 146 | 0.0 | 0.0 | 0.00 | 0.00 | 0.00 | 97 | 1015.1 |
| 20260904131354 | 53 | 151 | 0.0 | 0.0 | 0.00 | 0.00 | 0.00 | 97 | 1015.1 |
| 20260904130849 | 53 | 152 | 0.0 | 0.0 | 0.00 | 0.00 | 0.00 | 97 | 1015.0 |
| 20260904130348 | 53 | 152 | 0.0 | 0.0 | 0.00 | 0.00 | 0.00 | 97 | 1014.9 |
| 20260904125843 | 53 | 152 | 0.0 | 0.0 | 0.00 | 0.00 | 0.00 | 97 | 1014.9 |
| 20260904125340 | 53 | 152 | 0.0 | 0.0 | 0.00 | 0.00 | 0.00 | 97 | 1014.9 |
| 20260904124838 | 53 | 153 | 0.0 | 0.0 | 0.00 | 0.00 | 0.00 | 97 | 1014.8 |
| 20260904124335 | 52 | 152 | 0.0 | 0.0 | 0.00 | 0.00 | 0.00 | 97 | 1014.9 |
| 20260904123831 | 52 | 149 | 0.0 | 0.0 | 0.00 | 0.00 | 0.00 | 97 | 1014.6 |
| 20260904123326 | 52 | 154 | 0.0 | 0.0 | 0.00 | 0.00 | 0.00 | 97 | 1014.7 |
| 20260904122821 | 52 | 151 | 0.0 | 0.0 | 0.00 | 0.00 | 0.00 | 97 | 1014.8 |
| 20260904122320 | 52 | 153 | 0.0 | 0.0 | 0.00 | 0.00 | 0.00 | 97 | 1014.6 |
| 20260904121815 | 52 | 155 | 0.0 | 0.0 | 0.00 | 0.00 | 0.00 | 97 | 1014.5 |
| 20260904121312 | 52 | 157 | 0.0 | 0.0 | 0.00 | 0.00 | 0.00 | 97 | 1014.4 |
| 20260904120808 | 52 | 155 | 0.0 | 0.0 | 0.00 | 0.00 | 0.00 | 97 | 1014.5 |
| 20260904120258 | 52 | 152 | 0.0 | 0.0 | 0.00 | 0.00 | 0.00 | 97 | 1014.4 |
| 20260904115753 | 52 | 142 | 0.0 | 0.0 | 0.00 | 0.00 | 0.00 | 97 | 1014.7 |
| 20260904115248 | 53 | 156 | 0.0 | 0.0 | 0.00 | 0.00 | 0.00 | 97 | 1014.2 |
| 20260904114742 | 52 | 154 | 0.0 | 0.0 | 0.00 | 0.00 | 0.00 | 97 | 1014.4 |
| 20260904114242 | 53 | 157 | 0.0 | 0.0 | 0.00 | 0.00 | 0.00 | 97 | 1014.4 |
| 20260904113737 | 53 | 154 | 0.0 | 0.0 | 0.00 | 0.00 | 0.00 | 97 | 1014.3 |
| 20260904113236 | 53 | 148 | 0.0 | 0.0 | 0.00 | 0.00 | 0.00 | 97 | 1014.3 |
| 20260904112731 | 53 | 153 | 0.0 | 0.0 | 0.00 | 0.00 | 0.00 | 97 | 1014.3 |
| 20260904112227 | 53 | 153 | 0.0 | 0.0 | 0.00 | 0.00 | 0.00 | 97 | 1014.2 |
| 20260904111722 | 53 | 143 | 0.0 | 0.0 | 0.00 | 0.00 | 0.00 | 97 | 1014.4 |
| 20260904111218 | 53 | 151 | 0.0 | 0.0 | 0.00 | 0.00 | 0.00 | 97 | 1014.2 |
| 20260904110713 | 53 | 153 | 0.0 | 0.0 | 0.00 | 0.00 | 0.00 | 97 | 1014.3 |
| 20260904110212 | 53 | 152 | 0.0 | 0.0 | 0.00 | 0.00 | 0.00 | 97 | 1014.2 |
| 20260904105708 | 53 | 157 | 0.0 | 0.0 | 0.00 | 0.00 | 0.00 | 97 | 1014.1 |
| 20260904105202 | 53 | 153 | 0.0 | 0.0 | 0.00 | 0.00 | 0.00 | 97 | 1014.1 |
| 20260904104658 | 53 | 153 | 0.0 | 0.0 | 0.00 | 0.00 | 0.00 | 97 | 1014.1 |